Regional Weather Roundup
Issued by NWS State College, PA

Home | Current Version | Previous Version | Text Only | Print | Product List | Glossary On
Versions: 1 2 3 4 5 6 7 8 9 10 11 12 13 14 15 16 17 18 19 20 21 22 23 24 25 26 27 28 29 30 31 32 33 34 35 36 37 38 39 40 41 42 43 44 45 46 47 48 49 50
000
ASUS41 KCTP 301510
RWRCTP

REGIONAL WEATHER ROUNDUP
NATIONAL WEATHER SERVICE STATE COLLEGE PA
1100 AM EDT FRI SEP 30 2016

Note: "fair" indicates few or no clouds below 12,000 feet with no
significant weather and/or obstructions to visibility.

* = STATION THAT DOES NOT REPORT PRECIPITATION /E.G. RAIN...SNOW...ETC/
    THUNDER OR FOG.

PAZ002>004-007>009-013>016-020>023-029>032-301600-
WESTERN PENNSYLVANIA

CITY           SKY/WX    TMP DP  RH WIND       PRES   REMARKS
ERIE           CLOUDY    61  58  90 NE8       30.21S
MEADVILLE      LGT RAIN  56  53  90 E12       30.20S
FRANKLIN*        N/A     55  50  82 E9G18     30.22S
NEW CASTLE     CLOUDY    61  56  83 E9        30.18S
BEAVER COUNTY  CLOUDY    59  54  82 E6        30.15S
BUTLER*        CLOUDY    57  52  82 E14       30.20S
PITTSBURGH INT CLOUDY    60  56  86 E15G21    30.13F
PITTSBURGH     PTSUNNY   61  53  75 E13G21    30.14F
INDIANA*       CLOUDY    59  54  82 SE16G31   30.22S
LATROBE        PTSUNNY   59  55  88 E12       30.17S
WASHINGTON CO* PTSUNNY   57  55  94 E8        30.13S
$$

PAZ004>006-010>012-017>019-024>028-033>037-041-042-045-046-049>053-301600-
CENTRAL PENNSYLVANIA

CITY           SKY/WX    TMP DP  RH WIND       PRES   REMARKS
BRADFORD       LGT RAIN  54  54 100 E10G20    30.27S FOG
DUBOIS         CLOUDY    55  51  86 E15       30.23S
CLEARFIELD     LGT RAIN  54  53  97 E14       30.26S
JOHNSTOWN      CLOUDY    53  53 100 E8G20     30.20S FOG
ALTOONA        CLOUDY    54  53  97 E16G23    30.24S FOG
STATE COLLEGE  RAIN      52  52 100 NE8       30.27S
WILLIAMSPORT   LGT RAIN  56  55  97 NW3       30.28F FOG
SELINSGROVE    LGT RAIN  55  55 100 N6        30.29S FOG
FT INDIANTOWN  CLOUDY    54  54  98 NE6       30.27S
CAPITAL CITY   LGT RAIN  56  52  86 E12       30.26S
HARRISBURG     CLOUDY    56  54  93 E9        30.25F
YORK           CLOUDY    56  55  97 NE7       30.24S FOG
$$

PAZ038>040-043-044-047-048-054-055-060>062-067>071-301600-
EASTERN PENNSYLVANIA

CITY           SKY/WX    TMP DP  RH WIND       PRES   REMARKS
SCRANTON       LGT RAIN  53  50  89 NE9       30.32R
MOUNT POCONO   LGT RAIN  48  46  93 E17G30    30.31F FOG
ALLENTOWN      CLOUDY    55  51  86 E22G28    30.28F FOG
QUAKERTOWN*    CLOUDY    55  54  94 NE10G16   30.28S
READING        CLOUDY    55  51  86 N9        30.26S
LANCASTER      CLOUDY    57  55  93 E14G24    30.24F
COATESVILLE    CLOUDY    55  54  94 NE8G22    30.25S
POTTSTOWN      CLOUDY    55  53  93 NE7G17    30.28R
BLUE BELL      CLOUDY    54  54 100 NE9       30.25S
DOYLESTOWN     CLOUDY    56  54  93 NE9G23    30.26F
WILLOW GROVE   NOT AVBL
NORTH PHILA    CLOUDY    59  57  93 NE15      30.26S
PHILADELPHIA   CLOUDY    60  57  89 NE14G23   30.23S
$$




USA.gov is the U.S. government's official web portal to all federal, state and local government web resources and services.